Location: Ch�teau-Arnoux
(44.0814°N, 6.0027°E)
Time: 21:35:37
(UTC+00:00)

Cosmos 2151 - Pass Details

Date: 15 November 2019
Orbit: 581 x 602 km, 82.5° (Epoch: 08 December)

Event Time Altitude Azimuth Distance (km) Brightness Sun altitude
Rises 04:43:22 0° 180° (S) 2,835 6.5 -19.2°
Reaches altitude 10° 04:45:34 10° 178° (S) 1,938 5.7 -18.9°
Maximum altitude 04:49:50 69° 96° (E) 648 3.3 -18.1°
Drops below altitude 10° 04:54:08 10° 13° (NNE) 1,955 5.7 -17.3°
Sets 04:56:21 0° 11° (NNE) 2,862 6.5 -16.9°
